• In Russia
  • List of Countries
  • For 7 days
  • Water Temperature
  • Satellite Maps
  • Weather Map
  • Weather Widgets
  • user-avatar
    Login

    Hourly Weather Pabna

    Today, 22 May, Wednesday

    Time Temperature Precipitation Wind Pressure Humidity
    00:00 +35°C° 0 mm 4 mps 752 mmHg 59%
    01:00 +34°C° 0 mm 4 mps 751 mmHg 63%
    02:00 +34°C° 0 mm 3 mps 751 mmHg 67%
    03:00 +33°C° 0 mm 3 mps 751 mmHg 71%
    04:00 +33°C° 0 mm 4 mps 751 mmHg 74%
    05:00 +32°C° 0 mm 4 mps 751 mmHg 76%
    06:00 +31°C° 0 mm 3 mps 751 mmHg 79%
    07:00 +34°C° 0 mm 4 mps 751 mmHg 72%
    08:00 +35°C° 0 mm 4 mps 752 mmHg 65%
    09:00 +37°C° 0 mm 4 mps 752 mmHg 58%
    10:00 +40°C° 0 mm 4 mps 751 mmHg 51%
    11:00 +41°C° 0 mm 4 mps 751 mmHg 44%
    12:00 +43°C° 0 mm 4 mps 751 mmHg 38%
    13:00 +44°C° 0 mm 4 mps 750 mmHg 33%
    14:00 +45°C° 0 mm 3 mps 749 mmHg 28%
    15:00 +46°C° 0 mm 3 mps 748 mmHg 23%
    16:00 +45°C° 0 mm 3 mps 748 mmHg 25%
    17:00 +45°C° 0 mm 2 mps 748 mmHg 26%
    18:00 +43°C° 0 mm 2 mps 747 mmHg 28%
    19:00 +42°C° 0 mm 4 mps 748 mmHg 36%
    20:00 +40°C° 0 mm 6 mps 748 mmHg 44%
    21:00 +39°C° 0 mm 8 mps 749 mmHg 52%
    22:00 +38°C° 0 mm 7 mps 749 mmHg 55%
    23:00 +36°C° 0 mm 6 mps 749 mmHg 59%

    Tomorrow, 23 May, Thursday

    Time Temperature Precipitation Wind Pressure Humidity
    00:00 +35°C° 0 mm 6 mps 750 mmHg 63%
    01:00 +34°C° 0 mm 5 mps 749 mmHg 64%
    02:00 +34°C° 0 mm 5 mps 749 mmHg 65%
    03:00 +34°C° 0 mm 5 mps 749 mmHg 66%
    04:00 +33°C° 0 mm 5 mps 749 mmHg 66%
    05:00 +33°C° 0 mm 5 mps 749 mmHg 67%
    06:00 +33°C° 0 mm 5 mps 750 mmHg 68%
    07:00 +34°C° 0 mm 5 mps 750 mmHg 62%
    08:00 +36°C° 0 mm 5 mps 751 mmHg 57%
    09:00 +37°C° 0 mm 5 mps 751 mmHg 52%
    10:00 +41°C° 0 mm 5 mps 751 mmHg 45%
    11:00 +43°C° 0 mm 5 mps 750 mmHg 38%
    12:00 +46°C° 0 mm 5 mps 750 mmHg 31%
    13:00 +47°C° 0 mm 5 mps 749 mmHg 28%
    14:00 +47°C° 0 mm 5 mps 748 mmHg 25%
    15:00 +48°C° 0 mm 5 mps 747 mmHg 23%
    16:00 +46°C° 0.4 mm 6 mps 747 mmHg 28%
    17:00 +44°C° 0.4 mm 8 mps 746 mmHg 33%
    18:00 +42°C° 0.4 mm 9 mps 746 mmHg 38%
    19:00 +40°C° 0.7 mm 9 mps 746 mmHg 44%
    20:00 +38°C° 0.7 mm 8 mps 747 mmHg 49%
    21:00 +36°C° 0.7 mm 7 mps 748 mmHg 54%
    22:00 +35°C° 0 mm 7 mps 749 mmHg 57%
    23:00 +35°C° 0 mm 7 mps 749 mmHg 60%

    Day after tomorrow, 24 May, Friday

    Time Temperature Precipitation Wind Pressure Humidity
    00:00 +34°C° 0 mm 7 mps 749 mmHg 63%
    01:00 +34°C° 0 mm 7 mps 749 mmHg 64%
    02:00 +34°C° 0 mm 7 mps 748 mmHg 66%
    03:00 +33°C° 0 mm 7 mps 748 mmHg 67%
    04:00 +33°C° 0 mm 8 mps 748 mmHg 68%
    05:00 +33°C° 0 mm 8 mps 748 mmHg 70%
    06:00 +33°C° 0 mm 8 mps 749 mmHg 71%
    07:00 +34°C° 0 mm 7 mps 749 mmHg 68%
    08:00 +35°C° 0 mm 7 mps 750 mmHg 65%
    09:00 +36°C° 0 mm 7 mps 750 mmHg 61%
    10:00 +38°C° 0 mm 6 mps 750 mmHg 57%
    11:00 +40°C° 0 mm 6 mps 750 mmHg 52%
    12:00 +41°C° 0 mm 5 mps 750 mmHg 47%
    13:00 +42°C° 0 mm 5 mps 749 mmHg 44%
    14:00 +43°C° 0 mm 5 mps 748 mmHg 41%
    15:00 +45°C° 0 mm 5 mps 747 mmHg 38%
    16:00 +43°C° 0.1 mm 5 mps 747 mmHg 42%
    17:00 +42°C° 0.1 mm 6 mps 747 mmHg 46%
    18:00 +40°C° 0.1 mm 6 mps 746 mmHg 50%
    19:00 +39°C° 0.2 mm 6 mps 747 mmHg 54%
    20:00 +38°C° 0.2 mm 7 mps 747 mmHg 57%
    21:00 +36°C° 0.2 mm 7 mps 748 mmHg 61%
    22:00 +35°C° 0 mm 6 mps 748 mmHg 64%
    23:00 +34°C° 0 mm 6 mps 748 mmHg 68%

    25 May, Saturday

    Time Temperature Precipitation Wind Pressure Humidity
    00:00 +34°C° 0 mm 5 mps 748 mmHg 71%
    01:00 +33°C° 0 mm 6 mps 748 mmHg 72%
    02:00 +33°C° 0 mm 6 mps 747 mmHg 73%
    03:00 +33°C° 0 mm 6 mps 747 mmHg 74%
    04:00 +33°C° 0 mm 6 mps 747 mmHg 75%
    05:00 +33°C° 0 mm 6 mps 747 mmHg 75%
    06:00 +33°C° 0 mm 6 mps 747 mmHg 76%
    07:00 +34°C° 0 mm 5 mps 748 mmHg 74%
    08:00 +34°C° 0 mm 5 mps 748 mmHg 71%
    09:00 +35°C° 0 mm 4 mps 749 mmHg 69%
    10:00 +37°C° 0 mm 4 mps 749 mmHg 62%
    11:00 +38°C° 0 mm 4 mps 748 mmHg 55%
    12:00 +41°C° 0 mm 4 mps 748 mmHg 48%
    13:00 +42°C° 0 mm 3 mps 747 mmHg 43%
    14:00 +43°C° 0 mm 3 mps 746 mmHg 39%
    15:00 +45°C° 0 mm 2 mps 746 mmHg 34%
    16:00 +43°C° 0.1 mm 2 mps 745 mmHg 35%
    17:00 +43°C° 0.1 mm 3 mps 745 mmHg 37%
    18:00 +43°C° 0.1 mm 3 mps 745 mmHg 39%
    19:00 +41°C° 0.5 mm 4 mps 746 mmHg 47%
    20:00 +39°C° 0.5 mm 6 mps 746 mmHg 56%
    21:00 +36°C° 0.5 mm 7 mps 747 mmHg 64%
    22:00 +36°C° 0.5 mm 6 mps 747 mmHg 68%
    23:00 +35°C° 0.5 mm 5 mps 748 mmHg 71%

    26 May, Sunday

    Time Temperature Precipitation Wind Pressure Humidity
    00:00 +34°C° 0.5 mm 4 mps 748 mmHg 75%
    01:00 +34°C° 0 mm 5 mps 748 mmHg 76%
    02:00 +33°C° 0 mm 5 mps 747 mmHg 77%
    03:00 +33°C° 0 mm 6 mps 747 mmHg 78%
    04:00 +33°C° 0 mm 6 mps 747 mmHg 78%
    05:00 +33°C° 0 mm 6 mps 747 mmHg 77%
    06:00 +33°C° 0 mm 6 mps 748 mmHg 77%
    07:00 +34°C° 0 mm 5 mps 748 mmHg 73%
    08:00 +35°C° 0 mm 5 mps 749 mmHg 68%
    09:00 +37°C° 0 mm 5 mps 749 mmHg 63%
    10:00 +37°C° 0 mm 5 mps 749 mmHg 61%
    11:00 +39°C° 0 mm 5 mps 749 mmHg 58%
    12:00 +40°C° 0 mm 6 mps 749 mmHg 56%
    13:00 +41°C° 0 mm 5 mps 748 mmHg 51%
    14:00 +42°C° 0 mm 5 mps 747 mmHg 46%
    15:00 +45°C° 0 mm 5 mps 746 mmHg 41%
    16:00 +41°C° 19.6 mm 5 mps 746 mmHg 54%
    17:00 +38°C° 19.6 mm 6 mps 745 mmHg 68%
    18:00 +33°C° 19.6 mm 6 mps 745 mmHg 81%
    19:00 +34°C° 12.5 mm 6 mps 746 mmHg 81%
    20:00 +34°C° 12.5 mm 5 mps 747 mmHg 80%
    21:00 +34°C° 12.5 mm 4 mps 749 mmHg 79%
    22:00 +34°C° 0 mm 4 mps 749 mmHg 80%
    23:00 +33°C° 0 mm 4 mps 749 mmHg 80%

    27 May, Monday

    Time Temperature Precipitation Wind Pressure Humidity
    00:00 +33°C° 0 mm 4 mps 749 mmHg 81%
    01:00 +33°C° 0 mm 4 mps 748 mmHg 82%
    02:00 +33°C° 0 mm 3 mps 748 mmHg 83%
    03:00 +31°C° 0 mm 3 mps 748 mmHg 85%
    04:00 +31°C° 0 mm 3 mps 749 mmHg 84%
    05:00 +32°C° 0 mm 4 mps 749 mmHg 83%
    06:00 +32°C° 0 mm 4 mps 749 mmHg 83%
    07:00 +33°C° 0 mm 4 mps 750 mmHg 78%
    08:00 +34°C° 0 mm 4 mps 750 mmHg 74%
    09:00 +35°C° 0 mm 4 mps 751 mmHg 69%
    10:00 +36°C° 0 mm 4 mps 750 mmHg 64%
    11:00 +37°C° 0 mm 4 mps 750 mmHg 59%
    12:00 +39°C° 0 mm 3 mps 750 mmHg 54%
    13:00 +40°C° 0 mm 3 mps 749 mmHg 50%
    14:00 +42°C° 0 mm 3 mps 748 mmHg 45%
    15:00 +42°C° 0 mm 2 mps 747 mmHg 41%
    16:00 +42°C° 0 mm 2 mps 747 mmHg 41%
    17:00 +43°C° 0 mm 3 mps 747 mmHg 42%
    18:00 +42°C° 0 mm 3 mps 747 mmHg 42%
    19:00 +41°C° 0.2 mm 4 mps 747 mmHg 49%
    20:00 +39°C° 0.2 mm 5 mps 748 mmHg 57%
    21:00 +36°C° 0.2 mm 6 mps 748 mmHg 64%
    22:00 +35°C° 0 mm 5 mps 748 mmHg 66%
    23:00 +34°C° 0 mm 5 mps 749 mmHg 68%
    Show more